map of KBHK home
KBHK - Airport
Location
City:  Baker, Montana, United States
Name:Baker Municipal Airport
ICAO:KBHK
FAA LID:BHK

Details
Type:Airport (Airfield)
Use:Public/Civil
Latitude:4620'48"N (46.346611)
Longitude:10415'29"W (-104.258110)
Datum:WGS 1984
Elevation:2980 ft (908 m)
Variation:8.28E (WMM2015v2 magnetic declination)
-0.08 annual change
Runways:1
Longest:5904 × 75 ft (1800 × 23 m), paved

Time
Time Zone:UTC-7 (DST-6)
Local Time:

Weather
METAR:KBHK 041351Z AUTO 30007KT 10SM FEW075 M26/M28 A3003 RMK AO2 SLP256 T12561278 $

Related Locations
Nearby:
Farthest:YWKS: 10521 mi / 16932 km
Wilkins Runway (Casey), Upper Peterson Glacier, AQ

Find:

   beyond  
but within

Other Information
Maps:
NOTAMs:
Links:
Sources:

  
  • flag of United States
  • flag of Montana
  

Sectional Chart

Flight Planning
at skyvector.com

Satellite Image

Google Maps Satellite view

 

Copyright © 2004-2019 Karl L. Swartz. All rights reserved.
The Great Circle Mapper name and logo are trademarks of the Great Circle Mapper.
All other trademarks mentioned herein belong to their respective owners.
Please see credits for attibutions and further copyright information.

  Follow gcmap on Facebook Follow gcmap on Twitter GCmap on LinkedIn

hCard Microformat

Geo Microformat